SCP
3 2 3 3 2 2 1 1 1 1 1 1 1 1 0 0 0 0 0 0 0 0 0 0 0 0 0 0 0 0 0 0 0 0 0 0 0 0 0 0 0 0 0
3 3 3 3 3 2 2 1 1 1 1 1 1 1 1 0 0 0 0 0 0 0 0 0 0 0 0 0 0 0 0 0 0 0 0 0 0 0 0 0 0 0 0
3 3 3 3 3 2 2 2 1 1 1 1 1 1 1 1 1 1 1 1 1 1 1 0 0 0 0 0 0 0 0 0 0 0 0 0 0 0 0 0 0 0 0
3 3 3 3 3 3 2 2 2 1 1 1 1 1 1 1 1 1 1 1 1 1 0 0 0 0 0 0 0 0 0 0 0 0 0 0 0 0 0 0 0 0 0
3 3 3 4 4 3 2 2 2 2 1 1 1 1 1 1 1 1 1 1 1 0 0 0 0 0 0 0 0 0 0 0 0 0 0 0 0 0 0 0 0 0 0
3 3 3 4 4 3 3 2 2 2 2 2 1 1 1 1 1 1 1 1 0 0 0 0 0 0 0 0 0 0 0 0 0 0 0 0 0 0 0 0 0 0 0
3 3 3 4 4 4 3 2 2 2 2 2 1 1 1 1 1 1 1 1 1 0 0 0 0 0 0 0 0 1 1 0 0 0 0 0 0 0 0 0 0 0 0
4 3 3 4 4 4 4 3 2 2 2 2 2 1 1 1 1 1 1 1 1 1 1 1 1 0 0 0 0 0 0 0 0 0 0 0 0 0 0 0 0 0 0
4 4 3 3 4 4 3 3 3 2 2 2 2 1 1 1 1 1 1 1 1 1 1 1 1 1 0 0 0 0 0 0 0 0 0 0 0 0 0 0 0 0 0
4 4 3 4 4 3 3 2 2 2 2 2 1 1 1 1 1 1 1 1 1 1 1 1 1 1 1 1 0 0 0 0 0 0 0 0 0 1 1 0 0 0 0
4 4 4 4 4 3 3 2 2 2 2 1 1 1 1 1 1 1 1 1 1 1 1 1 1 1 1 1 0 0 0 0 0 0 0 0 0 1 0 0 0 0 0
4 4 4 4 4 4 3 3 2 2 2 1 1 1 1 1 1 1 1 0 1 1 1 1 1 1 1 1 1 0 0 0 0 0 0 0 0 0 0 0 0 0 0
4 4 4 4 4 4 4 3 3 2 2 2 1 1 1 1 1 1 0 0 0 1 1 1 1 1 1 1 1 0 0 0 0 0 0 0 0 0 0 0 0 1 1
3 3 3 3 4 4 4 4 3 3 2 2 1 1 1 1 1 1 1 1 1 1 1 1 1 1 1 1 1 0 0 0 0 0 0 0 0 0 0 0 0 1 1
3 3 3 4 4 4 4 4 4 3 3 2 1 1 1 1 1 1 1 1 1 1 1 1 1 1 1 1 1 1 0 0 0 0 0 0 0 0 0 0 1 1 1
3 3 3 4 4 4 4 4 4 3 3 2 1 1 1 1 1 1 1 1 1 1 1 0 0 0 0 0 0 0 0 0 0 0 0 0 0 0 1 1 1 1 1
4 4 4 4 4 4 4 4 3 3 2 1 1 1 1 1 1 1 1 1 1 1 0 0 0 0 0 0 0 0 0 0 0 0 0 0 0 0 0 1 1 1 1
4 4 4 4 4 4 3 2 2 2 1 1 1 1 1 1 1 1 1 1 0 0 0 0 0 0 0 0 0 0 0 0 0 0 0 0 0 0 0 1 1 1 1
4 4 4 4 3 3 2 2 2 1 1 1 1 0 0 0 0 0 0 0 0 0 0 0 0 0 0 0 0 0 0 0 0 0 0 0 0 0 0 0 0 1 1
3 4 4 4 3 2 2 2 2 2 1 1 1 0 0 0 0 0 0 0 0 0 0 0 0 0 0 0 0 0 0 0 0 0 0 0 0 0 0 0 0 1 1
3 3 3 3 2 2 2 2 2 1 1 1 0 0 0 0 0 0 0 0 0 0 0 0 0 0 0 0 0 0 0 0 0 0 0 0 0 0 0 0 0 0 1
3 3 3 3 2 2 2 1 1 1 1 1 0 0 0 0 0 0 0 0 0 0 0 0 0 0 0 0 0 0 0 0 0 0 0 0 0 0 0 0 1 1 1
3 3 3 3 2 2 2 1 1 1 1 0 0 0 0 0 0 0 0 0 0 0 0 0 0 0 0 0 0 0 0 0 0 0 0 0 0 0 0 0 0 1 1
3 3 3 3 2 2 1 1 1 1 1 1 1 1 0 0 0 0 0 0 0 0 0 0 0 0 0 0 0 0 0 0 0 0 0 0 0 0 0 0 0 0 1
3 3 3 3 2 2 1 1 1 1 0 0 0 0 0 0 0 0 0 0 0 0 0 0 0 0 0 0 0 0 0 0 0 0 0 0 0 0 0 0 0 0 0
3 3 3 3 2 1 1 1 0 0 0 0 0 0 0 0 0 0 0 0 0 0 0 0 0 0 0 0 0 0 0 0 0 0 0 0 0 0 0 0 0 0 0
Wind_Speed
10 12 14 14 14 14 13 14 14 14 14 13 14 14 14 14 14 14 13 13 13 12 13 13 13 13 13 13 13 13 12 12 12 12 12 12 12 13 13 12 11 8 12
14 14 15 15 15 14 14 13 14 13 13 13 13 14 14 13 13 13 13 13 13 12 12 12 13 13 13 13 12 12 11 11 10 9 10 10 11 12 12 12 12 8 12
15 14 14 15 15 14 14 13 13 13 13 13 13 13 13 13 13 13 13 13 13 13 13 13 13 12 12 12 11 10 9 8 6 6 6 4 6 11 11 11 11 11 11
15 13 13 15 15 15 15 14 14 13 13 13 13 13 13 13 13 12 13 13 13 13 13 12 12 12 11 10 9 9 7 6 6 5 3 4 5 10 10 10 10 10 10
13 12 14 15 14 15 15 14 14 13 13 13 13 12 12 12 13 13 12 12 12 12 12 12 11 11 10 9 8 7 6 6 6 5 5 5 5 8 9 9 9 9 9
13 12 13 14 15 14 14 14 14 13 13 13 12 12 12 12 12 12 12 12 11 11 11 11 10 10 9 8 8 6 6 6 5 4 5 5 4 8 9 8 8 8 8
12 13 13 14 14 14 14 14 13 13 13 13 12 12 12 12 12 11 11 11 10 10 10 9 9 8 8 7 7 6 6 6 3 4 4 4 5 8 8 7 7 7 7
12 13 13 14 14 14 14 14 13 12 12 12 12 12 11 11 11 11 10 10 9 9 9 9 8 7 7 6 6 5 6 6 4 4 4 4 6 7 7 7 7 6 6
11 12 11 10 11 13 13 13 13 12 12 12 12 11 11 10 10 10 10 9 9 9 8 8 8 7 6 5 5 4 5 6 4 2 4 3 6 6 6 6 6 6 6
9 10 10 9 9 9 9 12 12 12 12 11 11 11 10 10 9 9 9 8 8 8 7 7 6 6 5 4 3 3 4 4 2 2 3 3 6 6 6 6 6 6 6
8 7 8 8 8 8 8 10 10 11 11 10 9 10 8 5 5 5 7 8 7 7 6 6 5 4 3 1 1 2 3 1 1 2 2 4 5 5 5 5 5 6 6
7 7 6 7 8 7 7 7 5 5 6 5 4 5 3 3 4 6 7 7 6 6 5 4 3 2 1 1 1 2 1 0 1 2 2 5 4 4 4 5 5 6 6
7 7 6 7 7 6 5 5 3 3 3 4 4 4 3 3 3 4 2 3 3 3 2 1 1 1 1 1 0 0 1 1 1 2 2 4 4 4 4 5 5 6 7
7 7 6 7 6 6 5 4 4 3 2 2 3 4 3 2 3 2 2 1 1 1 1 0 0 0 1 1 0 0 1 1 1 2 2 4 3 3 4 5 6 6 7
7 7 6 6 6 5 5 4 4 3 3 3 3 3 4 3 3 2 2 1 1 1 1 1 1 1 1 1 1 1 1 1 1 2 1 2 2 3 4 5 6 7 8
7 7 6 6 6 6 5 4 4 3 3 3 3 3 4 3 3 2 2 2 1 1 1 1 1 1 1 1 2 2 1 1 1 1 1 1 1 2 4 5 7 8 9
7 7 6 6 6 6 5 4 4 3 4 3 3 3 3 3 3 2 2 2 1 1 1 1 2 2 2 2 2 2 1 1 1 1 0 0 0 2 3 5 6 8 9
8 7 6 6 6 6 5 5 4 4 4 3 3 3 3 3 3 2 2 1 1 1 1 1 1 2 2 2 2 2 1 1 1 1 1 1 0 1 2 5 6 7 9
8 8 7 6 6 6 5 4 4 4 4 3 3 3 3 3 3 2 2 1 2 2 1 1 2 1 2 2 2 2 1 1 1 1 1 1 1 0 1 3 5 7 8
7 8 7 6 6 5 4 4 4 4 3 3 3 3 3 3 3 2 2 2 2 2 1 1 1 1 1 1 2 2 2 2 1 1 1 1 1 1 1 1 2 3 6
7 7 7 7 6 5 3 3 3 3 3 3 3 4 4 3 3 3 2 2 2 1 1 1 1 1 1 1 2 2 3 2 1 1 1 1 1 2 2 2 1 1 2
6 6 7 6 6 5 4 3 3 4 3 3 3 3 3 3 3 2 2 1 1 1 1 1 1 1 1 1 1 1 2 3 2 2 1 1 2 2 2 2 2 2 2
6 6 6 6 6 5 5 3 4 3 3 2 3 2 2 3 3 3 2 2 1 1 1 0 1 1 0 1 1 1 0 2 3 2 2 1 1 2 2 2 2 2 2
4 4 5 6 6 5 5 5 6 5 4 3 3 3 3 3 3 3 2 2 1 1 1 0 1 1 1 0 1 0 1 1 1 3 3 2 2 2 3 3 3 3 3
3 4 4 5 5 5 4 5 5 4 3 3 4 4 3 2 3 3 2 2 1 1 1 1 1 0 0 1 1 1 1 1 1 1 4 4 3 2 2 3 2 3 3
3 4 4 4 4 5 4 4 4 5 4 5 5 4 3 2 2 3 2 2 2 1 1 1 0 0 1 1 1 1 1 1 1 1 3 4 4 3 3 3 3 3 3
Wind_Direction
122 129 130 126 122 120 118 117 115 112 109 108 107 104 101 99 97 95 93 91 89 88 87 86 84 83 82 79 76 74 74 73 73 74 72 71 69 66 62 59 58 58 62
126 130 131 128 125 122 120 117 115 114 110 109 108 105 103 101 100 97 94 92 89 88 87 85 84 83 81 78 76 74 75 76 76 79 78 73 71 69 65 61 58 61 60
125 130 131 127 126 124 122 119 118 115 112 110 108 106 105 103 102 99 95 92 89 87 85 84 82 82 79 78 75 72 72 72 71 74 76 77 75 73 69 64 61 60 58
125 131 132 128 126 125 124 122 121 118 115 111 108 106 105 104 101 98 95 91 88 86 83 81 81 80 77 75 73 70 64 50 40 40 60 73 72 74 70 64 61 58 56
122 126 127 129 127 126 125 123 121 118 116 113 111 108 106 104 102 98 94 90 87 85 83 80 79 79 76 73 70 63 49 32 24 33 55 63 63 71 68 62 58 56 53
122 122 127 128 127 126 125 123 120 118 116 113 112 110 107 104 103 100 96 93 90 89 87 84 81 80 76 72 67 56 34 20 23 47 55 60 62 69 66 61 56 51 47
122 122 129 126 125 126 125 122 120 118 117 115 113 111 109 107 105 101 99 96 95 94 91 89 85 81 76 70 63 47 23 15 35 55 59 58 57 67 62 55 50 45 39
121 123 129 125 124 122 122 122 121 120 119 117 114 112 110 108 107 104 102 100 97 96 94 92 88 83 76 68 58 38 15 5 37 56 65 61 61 63 56 49 41 35 30
122 127 132 133 127 122 121 121 120 120 118 116 114 112 111 109 108 106 102 100 99 97 94 92 89 83 75 67 54 28 5 6 26 35 66 65 64 60 50 42 34 28 23
120 129 136 138 135 128 122 118 117 116 117 117 116 113 112 110 108 106 101 98 99 99 97 94 91 87 79 68 44 11 352 359 35 48 58 64 63 56 44 34 24 17 11
122 125 132 134 131 128 128 124 119 116 117 117 119 124 123 120 116 108 106 103 101 101 102 102 103 103 97 76 7 339 347 4 53 68 60 64 63 50 36 23 13 6 359
133 131 127 125 126 126 128 127 128 128 130 127 132 136 130 111 107 107 107 110 110 109 108 114 120 124 140 185 274 305 327 5 46 79 69 64 55 38 23 10 1 352 347
137 131 126 124 126 126 124 129 124 122 128 130 128 121 106 101 106 107 114 120 124 130 124 134 162 218 182 143 130 218 315 41 58 67 65 58 43 19 5 355 348 341 335
131 127 126 126 126 125 123 122 123 122 121 112 111 112 108 105 101 106 106 120 127 123 116 145 207 6 40 49 53 28 11 52 79 86 87 63 41 6 351 346 341 340 335
135 131 127 122 124 123 116 120 118 120 118 112 107 101 98 99 100 97 88 82 81 73 65 32 30 35 25 16 6 24 19 40 75 85 88 64 34 7 350 342 339 340 339
142 138 133 127 123 120 118 115 116 116 112 106 104 103 100 99 100 96 92 81 65 55 48 28 22 42 25 25 7 3 11 17 34 93 122 86 30 3 343 338 336 335 336
142 138 137 134 128 123 119 119 117 118 112 112 109 107 102 98 100 100 99 87 65 40 35 25 20 26 15 16 1 344 353 348 342 9 69 137 41 0 334 330 329 329 330
139 138 140 136 130 125 123 122 117 116 113 112 110 104 101 100 97 94 92 94 81 58 47 39 30 24 11 5 351 344 346 349 347 346 359 352 355 342 328 321 324 325 326
141 139 136 135 134 128 123 121 118 114 113 114 108 104 103 102 100 101 103 95 79 65 48 33 33 35 16 358 332 323 327 321 298 326 325 336 336 306 285 310 315 318 321
139 138 139 135 132 126 120 113 110 110 112 110 108 111 109 106 105 100 98 85 77 71 45 38 40 24 26 342 327 322 299 273 280 290 288 307 302 299 294 290 296 307 320
135 137 140 138 135 128 128 132 130 131 127 116 112 116 114 112 105 102 93 86 82 87 75 45 45 27 13 6 7 327 308 280 257 280 293 310 307 307 313 312 300 301 315
145 146 143 144 144 142 144 144 137 130 126 124 120 118 119 114 111 106 106 100 93 94 68 52 59 41 9 30 46 350 330 332 321 293 287 286 295 312 308 310 307 308 308
153 157 153 151 150 147 142 131 118 100 99 107 122 126 130 125 117 111 117 114 100 105 130 115 104 101 50 327 47 104 52 288 314 305 292 288 306 316 307 302 302 305 311
154 147 147 150 148 145 144 145 147 146 148 157 148 139 137 131 126 122 117 115 113 101 100 108 99 109 116 301 323 344 224 208 293 309 308 305 316 312 312 320 318 312 306
141 144 143 143 144 143 145 148 150 146 142 138 138 139 140 134 132 130 129 125 124 108 92 47 51 74 147 197 248 294 297 305 244 238 290 304 313 301 310 311 312 309 311
116 133 142 145 147 145 148 151 154 149 147 143 144 147 148 140 140 140 141 138 133 119 108 88 26 289 246 240 239 236 236 253 265 261 276 297 301 298 304 301 302 302 305